Regional Weather Roundup
Issued by NWS

Home | Current Version | Previous Version | Text Only | Print | Product List | Glossary On
Versions: 1 2 3 4 5 6 7 8 9 10 11 12 13 14 15 16 17 18 19 20 21 22 23 24 25 26 27 28 29 30 31 32 33 34 35 36 37 38 39 40 41 42 43 44 45 46 47 48 49 50
000
ASUS43 KTOP 080708
RWRKS

WEATHER ROUNDUP FOR KANSAS
NATIONAL WEATHER SERVICE GOODLAND KS
100 AM CST MON FEB 08 2016

NOTE:  "FAIR" INDICATES FEW OR NO CLOUDS BELOW 12,000 FEET WITH NO
SIGNIFICANT WEATHER AND/OR OBSTRUCTIONS TO VISIBILITY.

KSZ001>006-013>018-027>032-041>047-080800-
NORTHWEST KANSAS

CITY           SKY/WX    TMP DP  RH WIND       PRES   REMARKS
GOODLAND       CLEAR     26  12  55 NW22      30.32S WCI  12
HAYS           CLEAR     32  12  43 NW22      30.26S WCI  19
HILL CITY      CLEAR     28  17  63 NW12      30.27F WCI  18
RUSSELL        CLEAR     32  19  58 NW20      30.23S WCI  20
$$

KSZ061>065-074>080-084>089-080800-
SOUTHWEST KANSAS

CITY           SKY/WX    TMP DP  RH WIND       PRES   REMARKS
DODGE CITY     CLEAR     32  14  47 NW22G31   30.31F WCI  19
ELKHART          N/A     28  11  49 NW14        N/A  WCI  17
GARDEN CITY    CLOUDY    33  16  49 NW18      30.34R WCI  22
GREAT BEND     CLEAR     32  16  51 NW18      30.27S WCI  20
LIBERAL        PTCLDY    28  12  50 W12       30.38S WCI  18
PRATT          CLEAR     32  14  47 NW17G25   30.27S WCI  21
$$

KSZ066>073-081>083-090>101-080800-
SOUTHEAST KANSAS

CITY           SKY/WX    TMP DP  RH WIND       PRES   REMARKS
CHANUTE        CLEAR     36  21  54 NW13      30.10S WCI  27
COFFEYVILLE    CLEAR     38  20  48 W14       30.14S WCI  30
HUTCHINSON     CLEAR     37  17  44 NW21G37   30.23R WCI  26
MEDICINE LODGE   N/A     33  18  53 NW13      30.28R WCI  24
NEWTON         CLEAR     34  18  51 NW20      30.19S WCI  22
PARSONS        CLEAR     38  21  50 W14       30.12F WCI  30
WICHITA INTL   CLEAR     38  18  44 NW23G31   30.20S WCI  27
WICHITA JABRA  CLEAR     36  19  50 NW21G29   30.19S WCI  25
WICHITA MCCONL CLEAR     38  18  43 NW20G30   30.19S WCI  28
WINFIELD       PTCLDY    35  21  56 NW15      30.22S WCI  25
$$

KSZ007>012-019>026-033>040-048>060-102>105-080800-
NORTHEAST KANSAS

CITY           SKY/WX    TMP DP  RH WIND       PRES   REMARKS
CONCORDIA      CLEAR     32  19  58 NW14      30.16S WCI  22
EMPORIA        CLEAR     36  18  48 NW18G32   30.10F WCI  26
LAWRENCE       MOCLDY    34  24  67 N23G29    30.05R WCI  22
MANHATTAN      PTCLDY    36  18  48 NW10G21   30.14S WCI  28
MARYSVILLE     CLOUDY    34  21  60 NW21G32   30.08F WCI  22
OLATHE IND     LGT SNOW  33  27  78 NW35G45   30.03S WCI  18
OLATHE EXE     FLURRIES  36  25  64 NW20G36   30.00F WCI  25
SALINA         CLEAR     35  19  52 W16       30.20S WCI  25
TOPEKA BILLARD CLOUDY    38  20  48 NW15G24   30.07R WCI  29
TOPEKA FORBES  CLOUDY    38  20  48 NW18      30.06R WCI  28
$$



USA.gov is the U.S. government's official web portal to all federal, state and local government web resources and services.